This is the latest recevied weather packets stored in our database for station/object SP9MUF-14. If no packets are shown the sender has not sent any weather packets the latest 10 day(s).
| Time | Temp. | Humidity | Pressure | Rain* | Wind** | Luminosity | Snow |
|---|---|---|---|---|---|---|---|
| 1777295759 | 15° C | 22% | 1021.1 hPa | 0 mm | - | 495 W/m² | - |
| 1777295454 | 15° C | 21% | 1021.1 hPa | 0 mm | - | 506 W/m² | - |
| 1777295150 | 15° C | 22% | 1021.2 hPa | 0 mm | - | 517 W/m² | - |
| 1777294846 | 15° C | 21% | 1021.2 hPa | 0 mm | - | 531 W/m² | - |
| 1777294239 | 15.56° C | 23% | 1021.2 hPa | 0 mm | - | 554 W/m² | - |
| 1777293935 | 15° C | 23% | 1021.4 hPa | 0 mm | - | 560 W/m² | - |
| 1777293631 | 15° C | 24% | 1021.3 hPa | 0 mm | - | 564 W/m² | - |
| 1777293027 | 15° C | 24% | 1021.5 hPa | 0 mm | - | 580 W/m² | - |
| 1777292420 | 15° C | 24% | 1021.5 hPa | 0 mm | - | 600 W/m² | - |
| 1777292115 | 15° C | 25% | 1021.5 hPa | 0 mm | - | 605 W/m² | - |
| 1777291811 | 15° C | 24% | 1021.4 hPa | 0 mm | - | 615 W/m² | - |
| 1777291202 | 15° C | 26% | 1021.6 hPa | 0 mm | - | 622 W/m² | - |
| 1777290594 | 13.89° C | 24% | 1021.7 hPa | 0 mm | - | 639 W/m² | - |
| 1777289377 | 13.89° C | 26% | 1021.9 hPa | 0 mm | - | 663 W/m² | - |
| 1777288161 | 13.89° C | 25% | 1022.2 hPa | 0 mm | - | 675 W/m² | - |
| 1777287554 | 12.78° C | 25% | 1022.2 hPa | 0 mm | - | 681 W/m² | - |
| 1777286643 | 13.89° C | 27% | 1022.3 hPa | 0 mm | - | 683 W/m² | - |
| 1777285730 | 12.78° C | 27% | 1022.5 hPa | 0 mm | - | 672 W/m² | - |
| 1777285426 | 12.78° C | 28% | 1022.4 hPa | 0 mm | - | 668 W/m² | - |
| 1777285122 | 12.78° C | 29% | 1022.5 hPa | 0 mm | - | 671 W/m² | - |
| 1777284210 | 12.78° C | 29% | 1022.7 hPa | 0 mm | - | 663 W/m² | - |
| 1777283603 | 12.78° C | 30% | 1022.9 hPa | 0 mm | - | 658 W/m² | - |
| 1777283298 | 12.78° C | 31% | 1023 hPa | 0 mm | - | 657 W/m² | - |
| 1777282690 | 12.78° C | 29% | 1022.9 hPa | 0 mm | - | 655 W/m² | - |
| 1777282386 | 12.78° C | 31% | 1023.1 hPa | 0 mm | - | 409 W/m² | - |
* Rain latest hour (hover to see other rain measurements)
** Current wind speed in m/s (hover to see current wind gust speed)